Content
SEND FEEDBACK

Daily
Averages
Monthly
Summary
United States of America

UMATAC, GUAM


Home > North America > United States > Guam
Elevation: 58 meters     Latitude: 13 17N     Longitude: 144 40E

WEATHER
 
SELECT A DAY
Number of Records: 342,273;   Date Range: 1/1/95 - 8/30/14
 
SHARE

PRINT THIS DATA

[ ← Previous Day ]
WEATHER ALMANAC - 24 JUNE, 2013
[ Next Day → ]
[ °F ]   °C
We're sorry. There is no daily almanac available for Umatac, Guam on 24 June, 2013.
WEATHER BY HOUR - 24 JUNE, 2013
[ °F ]   °C
Local TimeTemperatureDewpointHumidityBarometerVisibilityWind DirectionWind SpeedGust SpeedPrecipitationEventsConditions
12:14 AM26 °C24 °C89 %1012.2 hPa16.1 kmEast (90°)20.4 km/hMostly Cloudy
12:55 AM25.9 °C23.5 °C87 %1012.2 hPa16.1 kmEast (80°)16.7 km/hClear
1:40 AM26 °C25 °C94 %1011.5 hPa16.1 kmEast (80°)18.5 km/hMostly Cloudy
1:45 AM26 °C25 °C94 %1011.5 hPa16.1 kmEast (80°)16.7 km/hScattered Clouds
1:52 AM26 °C25 °C94 %1011.5 hPa16.1 kmEast (80°)14.8 km/hMostly Cloudy
1:55 AM26.4 °C25 °C92 %1011.5 hPa16.1 kmEast (80°)18.5 km/hMostly Cloudy
2:46 AM27 °C25 °C89 %1010.8 hPa16.1 kmEast (80°)18.5 km/hMostly Cloudy
2:47 AM27 °C25 °C89 %1010.8 hPa16.1 kmEast (80°)18.5 km/hMostly Cloudy
2:55 AM26.6 °C24.8 °C90 %1010.8 hPa16.1 kmEast (100°)16.7 km/hMostly Cloudy
2:56 AM27 °C25 °C89 %1010.8 hPa16.1 kmEast (100°)16.7 km/hMostly Cloudy
3:01 AM27 °C25 °C89 %1011.2 hPa16.1 kmENE (70°)22.2 km/hMostly Cloudy
3:02 AM26 °C25 °C94 %1010.8 hPa16.1 kmENE (70°)22.2 km/hRainLight Rain
3:12 AM26 °C25 °C94 %1010.8 hPa16.1 kmENE (60°)20.4 km/hMostly Cloudy
3:16 AM26 °C24 °C89 %1010.8 hPa16.1 kmENE (70°)20.4 km/hMostly Cloudy
3:21 AM26 °C24 °C89 %1010.8 hPa16.1 kmENE (70°)22.2 km/hScattered Clouds
3:55 AM26.1 °C24.1 °C89 %1010.5 hPa16.1 kmEast (90°)20.4 km/h0 mmClear
4:55 AM26.3 °C24.4 °C89 %1010.8 hPa16.1 kmEast (80°)18.5 km/hScattered Clouds
5:03 AM26 °C24 °C89 %1010.8 hPa16.1 kmEast (80°)20.4 km/hMostly Cloudy
5:21 AM26 °C24 °C89 %1010.8 hPa16.1 kmENE (70°)22.2 km/hScattered Clouds
5:53 AM26 °C24 °C89 %1010.8 hPa16.1 kmEast (80°)24.1 km/hMostly Cloudy
5:55 AM26.4 °C24.4 °C89 %1010.8 hPa16.1 kmENE (70°)22.2 km/hMostly Cloudy
5:56 AM26 °C24 °C89 %1011.2 hPa16.1 kmENE (70°)20.4 km/hMostly Cloudy
5:58 AM26 °C24 °C89 %1011.2 hPa16.1 kmENE (70°)22.2 km/hMostly Cloudy
6:10 AM26 °C24 °C89 %1011.2 hPa16.1 kmEast (80°)22.2 km/hScattered Clouds
6:12 AM26 °C24 °C89 %1011.2 hPa16.1 kmENE (70°)24.1 km/hMostly Cloudy
6:14 AM26 °C24 °C89 %1011.2 hPa16.1 kmENE (70°)22.2 km/hMostly Cloudy
6:46 AM27 °C25 °C89 %1011.2 hPa16.1 kmENE (70°)20.4 km/hMostly Cloudy
6:53 AM27 °C25 °C89 %1011.5 hPa16.1 kmEast (80°)20.4 km/hMostly Cloudy
6:55 AM26.8 °C24.7 °C88 %1011.5 hPa16.1 kmENE (70°)24.1 km/hMostly Cloudy
6:59 AM27 °C25 °C89 %1011.5 hPa16.1 kmENE (70°)22.2 km/hMostly Cloudy
7:00 AM27 °C25 °C89 %1011.5 hPa16.1 kmENE (70°)24.1 km/hMostly Cloudy
7:04 AM27 °C24 °C84 %1011.5 hPa16.1 kmEast (80°)25.9 km/hMostly Cloudy
7:11 AM27 °C25 °C89 %1011.5 hPa16.1 kmEast (80°)25.9 km/hScattered Clouds
7:46 AM27 °C25 °C89 %1011.9 hPa16.1 kmEast (80°)25.9 km/hMostly Cloudy
7:48 AM28 °C25 °C84 %1011.9 hPa16.1 kmEast (80°)25.9 km/hScattered Clouds
7:55 AM27.8 °C24.6 °C83 %1011.5 hPa16.1 kmENE (70°)25.9 km/hScattered Clouds
8:17 AM28 °C25 °C84 %1011.9 hPa16.1 kmENE (70°)27.8 km/hMostly Cloudy
8:34 AM28 °C25 °C84 %1011.9 hPa16.1 kmENE (70°)27.8 km/hScattered Clouds
8:36 AM28 °C24 °C79 %1011.9 hPa16.1 kmEast (80°)29.6 km/hMostly Cloudy
8:38 AM28 °C24 °C79 %1011.9 hPa16.1 kmEast (80°)27.8 km/hScattered Clouds
8:55 AM28.6 °C24.7 °C79 %1011.9 hPa16.1 kmEast (80°)25.9 km/hScattered Clouds
9:01 AM29 °C25 °C79 %1011.9 hPa16.1 kmEast (80°)25.9 km/h37 km/hMostly Cloudy
9:12 AM29 °C25 °C79 %1011.9 hPa16.1 kmEast (80°)22.2 km/hScattered Clouds
9:13 AM29 °C25 °C79 %1011.9 hPa16.1 kmEast (80°)20.4 km/hMostly Cloudy
9:35 AM29 °C25 °C79 %1011.9 hPa16.1 kmEast (90°)27.8 km/h37 km/hScattered Clouds
9:39 AM29 °C25 °C79 %1011.9 hPa16.1 kmEast (90°)25.9 km/hMostly Cloudy
9:54 AM30 °C25 °C74 %1011.9 hPa16.1 kmEast (90°)27.8 km/hScattered Clouds
9:55 AM29.6 °C24.9 °C76 %1011.9 hPa16.1 kmEast (90°)27.8 km/hScattered Clouds
10:06 AM30 °C25 °C74 %1011.9 hPa16.1 kmEast (90°)27.8 km/hMostly Cloudy
10:28 AM30 °C25 °C74 %1011.9 hPa16.1 kmEast (90°)25.9 km/h37 km/hScattered Clouds
10:35 AM30 °C25 °C74 %1011.9 hPa16.1 kmENE (70°)27.8 km/h38.9 km/hMostly Cloudy
10:52 AM30 °C25 °C74 %1012.2 hPa16.1 kmEast (100°)25.9 km/h37 km/hScattered Clouds
10:55 AM29.7 °C25.4 °C78 %1012.2 hPa16.1 kmESE (110°)25.9 km/hScattered Clouds
11:55 AM30.8 °C24.9 °C71 %1011.9 hPa16.1 kmEast (90°)25.9 km/h37 km/hPartly Cloudy
12:29 PM31 °C25 °C70 %1011.5 hPa16.1 kmEast (100°)25.9 km/h40.7 km/hMostly Cloudy
12:38 PM30 °C25 °C74 %1011.5 hPa16.1 kmEast (100°)24.1 km/hMostly Cloudy
12:39 PM30 °C25 °C74 %1011.5 hPa12.9 kmEast (100°)25.9 km/hMostly Cloudy
12:40 PM30 °C25 °C74 %1011.5 hPa9.7 kmESE (110°)22.2 km/hRainLight Rain
12:47 PM29 °C26 °C84 %1011.5 hPa8 kmEast (100°)22.2 km/hRainLight Rain
12:49 PM29 °C26 °C84 %1011.5 hPa9.7 kmEast (100°)24.1 km/hHaze
12:55 PM28.7 °C25.8 °C84 %1011.5 hPa14.5 kmEast (90°)25.9 km/h37 km/h0.25 mmMostly Cloudy
1:17 PM30 °C26 °C79 %1011.2 hPa16.1 kmEast (90°)24.1 km/hMostly Cloudy
1:18 PM30 °C26 °C79 %1011.2 hPa16.1 kmEast (90°)25.9 km/hMostly Cloudy
1:19 PM30 °C26 °C79 %1011.2 hPa16.1 kmEast (80°)24.1 km/hMostly Cloudy
1:26 PM30 °C26 °C79 %1011.2 hPa16.1 kmEast (80°)25.9 km/hScattered Clouds
1:40 PM30 °C26 °C79 %1011.2 hPa16.1 kmEast (80°)29.6 km/h37 km/hMostly Cloudy
1:50 PM29 °C26 °C84 %1010.8 hPa16.1 kmESE (110°)20.4 km/hMostly Cloudy
1:52 PM29 °C26 °C84 %1010.8 hPa16.1 kmESE (110°)22.2 km/hMostly Cloudy
1:53 PM29 °C26 °C84 %1010.8 hPa12.9 kmESE (110°)29.6 km/h46.3 km/hMostly Cloudy
1:54 PM29 °C26 °C84 %1011.2 hPa6.4 kmESE (110°)35.2 km/h46.3 km/hRainLight Rain
1:55 PM28.7 °C25.8 °C84 %1011.2 hPa4 kmESE (110°)29.6 km/h46.3 km/h1.02 mmRainLight Rain
1:56 PM28 °C26 °C89 %1011.2 hPa2.9 kmESE (110°)27.8 km/h46.3 km/hRainHeavy Rain
1:57 PM28 °C26 °C89 %1011.2 hPa1.9 kmESE (110°)27.8 km/h46.3 km/hRainHeavy Rain
1:58 PM28 °C25 °C84 %1011.2 hPa1.6 kmESE (110°)24.1 km/h46.3 km/hRainHeavy Rain
2:00 PM27 °C25 °C89 %1011.2 hPa1.3 kmESE (120°)22.2 km/h46.3 km/hRainHeavy Rain
2:04 PM27 °C25 °C89 %1011.2 hPa1.6 kmESE (110°)20.4 km/hRainLight Rain
2:06 PM26 °C25 °C94 %1011.2 hPa1.9 kmESE (110°)22.2 km/hRainLight Rain
2:07 PM26 °C25 °C94 %1011.2 hPa2.9 kmESE (110°)22.2 km/hRainLight Rain
2:08 PM26 °C25 °C94 %1011.2 hPa4 kmESE (110°)20.4 km/hRainLight Rain
2:09 PM26 °C25 °C94 %1011.2 hPa6.4 kmESE (110°)18.5 km/hRainLight Rain
2:16 PM27 °C26 °C94 %1011.2 hPa16.1 kmESE (120°)13 km/hRainLight Rain
2:17 PM27 °C26 °C94 %1011.2 hPa16.1 kmESE (110°)14.8 km/hMostly Cloudy
2:55 PM28.4 °C26.1 °C87 %1010.5 hPa16.1 kmEast (90°)18.5 km/h2.54 mmMostly Cloudy
2:59 PM28 °C26 °C89 %1010.8 hPa16.1 kmEast (90°)22.2 km/hMostly Cloudy
3:01 PM28 °C26 °C89 %1010.8 hPa16.1 kmEast (100°)18.5 km/hMostly Cloudy
3:36 PM29 °C25 °C79 %1010.2 hPa16.1 kmEast (100°)22.2 km/hScattered Clouds
3:55 PM29.4 °C25.8 °C81 %1010.2 hPa16.1 kmEast (100°)24.1 km/hScattered Clouds
3:59 PM29 °C25 °C79 %1010.2 hPa16.1 kmESE (120°)24.1 km/hMostly Cloudy
4:00 PM29 °C25 °C79 %1010.2 hPa16.1 kmESE (120°)24.1 km/hMostly Cloudy
4:03 PM29 °C25 °C79 %1010.2 hPa16.1 kmESE (110°)25.9 km/hMostly Cloudy
4:05 PM29 °C25 °C79 %1010.2 hPa16.1 kmESE (110°)24.1 km/hMostly Cloudy
4:07 PM29 °C26 °C84 %1010.2 hPa16.1 kmEast (100°)22.2 km/hMostly Cloudy
4:08 PM29 °C26 °C84 %1010.2 hPa16.1 kmEast (100°)20.4 km/hMostly Cloudy
4:15 PM29 °C26 °C84 %1010.2 hPa16.1 kmESE (120°)20.4 km/hScattered Clouds
4:55 PM28.9 °C25.3 °C81 %1010.5 hPa16.1 kmEast (90°)20.4 km/hPartly Cloudy
5:39 PM28 °C25 °C84 %1010.5 hPa16.1 kmESE (120°)16.7 km/hRainLight Rain
5:42 PM28 °C25 °C84 %1010.8 hPa11.3 kmESE (120°)20.4 km/h29.6 km/hRainLight Rain
5:48 PM27 °C25 °C89 %1010.8 hPa4.8 kmESE (110°)16.7 km/h44.4 km/hRainLight Rain
5:49 PM27 °C25 °C89 %1010.8 hPa4.8 kmEast (100°)18.5 km/h44.4 km/hRainLight Rain
5:54 PM26 °C25 °C94 %1010.8 hPa12.9 kmEast (90°)14.8 km/hMostly Cloudy
5:55 PM26.4 °C24.8 °C91 %1010.8 hPa14.5 kmEast (90°)14.8 km/h0.51 mmMostly Cloudy
5:58 PM26 °C25 °C94 %1010.8 hPa16.1 kmEast (100°)14.8 km/hScattered Clouds
6:55 PM26 °C23.8 °C88 %1011.2 hPa16.1 kmSE (130°)22.2 km/hPartly Cloudy
7:36 PM27 °C25 °C89 %1011.5 hPa16.1 kmESE (110°)14.8 km/hMostly Cloudy
7:40 PM27 °C25 °C89 %1011.5 hPa16.1 kmENE (60°)14.8 km/hLight Drizzle
7:43 PM27 °C25 °C89 %1011.9 hPa16.1 kmENE (70°)20.4 km/hLight Drizzle
7:45 PM27 °C25 °C89 %1011.9 hPa16.1 kmENE (70°)22.2 km/hLight Drizzle
7:50 PM27 °C25 °C89 %1011.5 hPa16.1 kmEast (80°)16.7 km/hMostly Cloudy
7:51 PM27 °C25 °C89 %1011.5 hPa16.1 kmEast (80°)18.5 km/hMostly Cloudy
7:55 PM26.5 °C24.8 °C90 %1011.5 hPa16.1 kmENE (70°)18.5 km/h0 mmMostly Cloudy
8:05 PM27 °C25 °C89 %1011.9 hPa16.1 kmEast (80°)20.4 km/hMostly Cloudy
8:08 PM27 °C25 °C89 %1011.9 hPa16.1 kmEast (80°)24.1 km/hScattered Clouds
8:34 PM26 °C24 °C89 %1012.5 hPa16.1 kmESE (120°)24.1 km/hMostly Cloudy
8:36 PM26 °C24 °C89 %1012.5 hPa6.4 kmESE (110°)31.5 km/h38.9 km/hRainLight Rain
8:37 PM26 °C24 °C89 %1012.5 hPa3.2 kmESE (110°)29.6 km/h38.9 km/hRainHeavy Rain
8:38 PM26 °C24 °C89 %1012.5 hPa2.4 kmEast (100°)27.8 km/h38.9 km/hRainHeavy Rain
8:39 PM26 °C24 °C89 %1012.5 hPa1.9 kmEast (100°)22.2 km/h38.9 km/hRainHeavy Rain
8:40 PM26 °C24 °C89 %1012.5 hPa1.6 kmESE (110°)16.7 km/h38.9 km/hRainHeavy Rain
8:41 PM25 °C24 °C94 %1012.5 hPa1.6 kmESE (120°)18.5 km/h38.9 km/hRainHeavy Rain
8:42 PM25 °C24 °C94 %1012.2 hPa1.6 kmSE (130°)18.5 km/h38.9 km/hRainHeavy Rain
8:43 PM25 °C24 °C94 %1012.5 hPa1.6 kmSE (130°)20.4 km/h38.9 km/hRainLight Rain
8:47 PM25 °C24 °C94 %1012.2 hPa2.4 kmESE (120°)16.7 km/hRainLight Rain
8:48 PM25 °C24 °C94 %1012.2 hPa3.2 kmESE (120°)18.5 km/hRainLight Rain
8:49 PM25 °C24 °C94 %1012.2 hPa4.8 kmESE (120°)18.5 km/hRainLight Rain
8:51 PM25 °C24 °C94 %1012.2 hPa11.3 kmESE (120°)18.5 km/hRainLight Rain
8:52 PM25 °C24 °C94 %1012.2 hPa14.5 kmESE (120°)16.7 km/hMostly Cloudy
8:55 PM25 °C24.2 °C95 %1012.5 hPa16.1 kmESE (120°)16.7 km/h6.6 mmScattered Clouds
9:55 PM26 °C24.4 °C91 %1012.5 hPa16.1 kmEast (90°)16.7 km/hClear
10:36 PM26 °C25 °C94 %1012.5 hPa16.1 kmEast (80°)16.7 km/hMostly Cloudy
10:39 PM26 °C25 °C94 %1012.5 hPa16.1 kmEast (80°)16.7 km/hScattered Clouds
10:41 PM26 °C25 °C94 %1012.5 hPa16.1 kmEast (90°)18.5 km/hMostly Cloudy
10:47 PM26 °C25 °C94 %1012.5 hPa16.1 kmEast (80°)16.7 km/hScattered Clouds
10:48 PM26 °C25 °C94 %1012.5 hPa16.1 kmENE (70°)16.7 km/hMostly Cloudy
10:55 PM26.4 °C24.8 °C91 %1012.5 hPa16.1 kmEast (80°)20.4 km/hMostly Cloudy
11:04 PM27 °C25 °C89 %1012.9 hPa16.1 kmESE (110°)22.2 km/hScattered Clouds
11:13 PM27 °C25 °C89 %1012.9 hPa16.1 kmEast (100°)16.7 km/hMostly Cloudy
11:55 PM25.7 °C24.3 °C92 %1012.9 hPa16.1 kmENE (70°)18.5 km/hMostly Cloudy
11:56 PM26 °C24 °C89 %1012.9 hPa16.1 kmENE (70°)18.5 km/hMostly Cloudy
Hourly data recorded from PGUA, located 0 kilometers away from Umatac, Guam







STORIES FROM OUR PARTNERS